Marietta, GA

12:07 AM EST on December 17, 2017 (GMT -0500)
Dobbins Air Force Base

Weather History for KMGE - February, 2012

Change the Weather History Date:

Thursday, February 16, 2012

  Actual Average Record
Temperature  
Mean Temperature 52 °F -  
Max Temperature 59 °F 54 °F 75 °F (2001)
Min Temperature 46 °F 36 °F 21 °F (2007)
Degree Days  
Heating Degree Days 12    
Growing Degree Days 2 (Base 50)    
Moisture  
Dew Point 51 °F    
Average Humidity 95    
Maximum Humidity 100    
Minimum Humidity 67    
Precipitation  
Precipitation 0.25 in - - ()
Sea Level Pressure  
Sea Level Pressure 30.11 in    
Wind  
Wind Speed 5 mph (NE)    
Max Wind Speed 13 mph    
Max Gust Speed -    
Visibility 6 miles    
Events Rain    
Averages and records for this station are not official NWS values.
T = Trace of Precipitation, MM = Missing Value Source: NWS Daily Summary

Daily Weather History Graph

Daily Weather History Graph

Search for Another Location

Airport or City:

Trip Planner

Search our weather history database for the weather conditions in past years. The results will help you decide how hot, cold, wet, or windy it might be!

Date:

Astronomy

Feb. 16, 2012 Rise Set
Actual Time 7:22 AM EST 6:22 PM EST
Civil Twilight 6:56 AM EST 6:48 PM EST
Nautical Twilight 6:27 AM EST 7:17 PM EST
Astronomical Twilight 5:58 AM EST 7:46 PM EST
Moon 3:07 AM EST (2/16) 1:22 PM EST (2/16)
Length of Visible Light 11h 51m
Length of Day
11h 00m
Waning Crescent, 28% of the Moon is Illuminated
Feb 16
Waning Crescent
Feb 21
New
Feb 29
First Quarter
Mar 8
Full
Mar 14
Last Quarter

Hourly Weather History & Observations

Time (EST) Temp. Windchill Dew Point Humidity Pressure Visibility Wind Dir Wind Speed Gust Speed Precip Events Conditions
12:55 AM 52.9 °F - 42.8 °F 69% 30.16 in 10.0 mi East 5.8 mph - N/A   Overcast
1:55 AM 52.7 °F - 43.5 °F 71% 30.16 in 10.0 mi East 3.5 mph - N/A   Mostly Cloudy
2:50 AM 53.6 °F - 42.8 °F 67% 30.19 in 10.0 mi NW 8.1 mph - N/A   Overcast
2:55 AM 53.6 °F - 43.2 °F 68% 30.19 in 10.0 mi NW 6.9 mph - N/A   Overcast
2:59 AM 53.6 °F - 42.8 °F 67% 30.19 in 10.0 mi WNW 8.1 mph - N/A Rain Light Rain
3:55 AM 50.9 °F - 47.1 °F 87% 30.17 in 10.0 mi Calm Calm - 0.02 in Rain Light Rain
4:04 AM 50.0 °F - 48.2 °F 94% 30.17 in 8.0 mi ENE 3.5 mph - N/A Rain Light Rain
4:55 AM 49.5 °F - 48.0 °F 95% 30.13 in 7.0 mi Calm Calm - 0.06 in Rain Light Rain
5:14 AM 50.0 °F - 48.2 °F 94% 30.14 in 6.0 mi East 3.5 mph - N/A Rain Light Rain
5:16 AM 50.0 °F - 48.2 °F 94% 30.13 in 6.0 mi East 4.6 mph - N/A Rain Light Rain
5:55 AM 49.6 °F - 49.5 °F 99% 30.12 in 8.0 mi East 4.6 mph - 0.08 in Rain Light Rain
6:10 AM 50.0 °F - 50.0 °F 100% 30.12 in 9.0 mi East 4.6 mph - N/A   Light Drizzle
6:11 AM 50.0 °F - 50.0 °F 100% 30.12 in 9.0 mi East 4.6 mph - N/A   Mostly Cloudy
6:24 AM 50.0 °F - 50.0 °F 100% 30.12 in 9.0 mi East 4.6 mph - N/A   Mostly Cloudy
6:36 AM 50.0 °F - 50.0 °F 100% 30.12 in 8.0 mi East 4.6 mph - N/A   Overcast
6:49 AM 50.0 °F - 50.0 °F 100% 30.12 in 8.0 mi East 5.8 mph - N/A   Overcast
6:55 AM 50.0 °F - 49.8 °F 99% 30.12 in 8.0 mi East 4.6 mph - 0.00 in   Overcast
6:56 AM 50.0 °F - 50.0 °F 100% 30.12 in 8.0 mi East 4.6 mph - N/A   Overcast
7:19 AM 50.0 °F - 50.0 °F 100% 30.12 in 6.0 mi East 6.9 mph - N/A   Overcast
7:55 AM 50.5 °F - 50.4 °F 99% 30.12 in 6.0 mi East 6.9 mph - N/A   Overcast
8:25 AM 50.0 °F - 50.0 °F 100% 30.14 in 2.5 mi East 5.8 mph - N/A   Overcast
8:26 AM 50.0 °F - 50.0 °F 100% 30.14 in 2.5 mi East 5.8 mph - N/A   Overcast
8:27 AM 50.0 °F - 50.0 °F 100% 30.14 in 2.0 mi East 5.8 mph - N/A   Overcast
8:29 AM 50.0 °F - 50.0 °F 100% 30.13 in 1.8 mi East 6.9 mph - N/A   Overcast
8:36 AM 50.0 °F - 50.0 °F 100% 30.13 in 2.0 mi East 8.1 mph - N/A   Overcast
8:40 AM 50.0 °F - 50.0 °F 100% 30.13 in 2.5 mi East 9.2 mph - N/A   Overcast
8:42 AM 50.0 °F - 50.0 °F 100% 30.13 in 2.5 mi East 8.1 mph - N/A   Light Drizzle
8:43 AM 50.0 °F - 50.0 °F 100% 30.13 in 2.0 mi East 8.1 mph - N/A   Light Drizzle
8:47 AM 50.0 °F - 50.0 °F 100% 30.14 in 1.8 mi East 5.8 mph - N/A Rain Light Rain
8:51 AM 50.0 °F - 50.0 °F 100% 30.14 in 1.5 mi East 6.9 mph - N/A Rain Light Rain
8:55 AM 50.5 °F - 50.4 °F 99% 30.14 in 1.5 mi East 6.9 mph - 0.01 in Rain Light Rain
9:08 AM 50.0 °F - 50.0 °F 100% 30.14 in 1.2 mi East 5.8 mph - N/A Rain Light Rain
9:12 AM 50.0 °F - 50.0 °F 100% 30.14 in 1.0 mi ENE 3.5 mph - N/A Rain Light Rain
9:22 AM 50.0 °F - 50.0 °F 100% 30.13 in 1.2 mi East 5.8 mph - N/A Rain Light Rain
9:37 AM 50.0 °F - 50.0 °F 100% 30.14 in 1.5 mi East 3.5 mph - N/A Rain Light Rain
9:55 AM 50.9 °F - 50.7 °F 99% 30.13 in 1.5 mi East 4.6 mph - 0.04 in   Light Drizzle
10:04 AM 51.8 °F - 50.0 °F 94% 30.13 in 1.8 mi ESE 4.6 mph - N/A Rain Light Rain
10:10 AM 51.8 °F - 50.0 °F 94% 30.12 in 2.0 mi East 5.8 mph - N/A Rain Light Rain
10:20 AM 51.8 °F - 51.8 °F 100% 30.13 in 2.5 mi East 3.5 mph - N/A Rain Light Rain
10:22 AM 51.8 °F - 51.8 °F 100% 30.13 in 3.0 mi East 4.6 mph - N/A Rain Light Rain
10:28 AM 51.8 °F - 51.8 °F 100% 30.13 in 4.0 mi Calm Calm - N/A   Overcast
10:32 AM 51.8 °F - 51.8 °F 100% 30.13 in 2.5 mi ESE 4.6 mph - N/A   Overcast
10:33 AM 51.8 °F - 51.8 °F 100% 30.13 in 2.5 mi ESE 4.6 mph - N/A   Light Drizzle
10:34 AM 51.8 °F - 51.8 °F 100% 30.13 in 2.0 mi ESE 4.6 mph - N/A   Light Drizzle
10:39 AM 51.8 °F - 51.8 °F 100% 30.13 in 2.5 mi East 6.9 mph - N/A Rain Light Rain
10:42 AM 51.8 °F - 51.8 °F 100% 30.12 in 3.0 mi East 5.8 mph - N/A Rain Light Rain
10:55 AM 52.0 °F - 51.8 °F 99% 30.12 in 3.0 mi ESE 5.8 mph - 0.02 in   Light Drizzle
11:01 AM 51.8 °F - 51.8 °F 100% 30.12 in 2.5 mi Variable 4.6 mph - N/A   Light Drizzle
11:06 AM 51.8 °F - 51.8 °F 100% 30.12 in 2.5 mi East 3.5 mph - N/A   Overcast
11:08 AM 51.8 °F - 51.8 °F 100% 30.13 in 3.0 mi ENE 3.5 mph - N/A   Overcast
11:52 AM 53.6 °F - 51.8 °F 94% 30.12 in 2.5 mi Calm Calm - N/A   Overcast
11:54 AM 53.6 °F - 51.8 °F 94% 30.12 in 3.0 mi Calm Calm - N/A   Light Drizzle
11:55 AM 52.9 °F - 52.5 °F 99% 30.12 in 3.0 mi Calm Calm - 0.00 in   Light Drizzle
12:05 PM 53.6 °F - 53.6 °F 100% 30.12 in 3.0 mi Calm Calm - N/A   Overcast
12:08 PM 53.6 °F - 53.6 °F 100% 30.12 in 2.5 mi Calm Calm - N/A   Overcast
12:11 PM 53.6 °F - 53.6 °F 100% 30.11 in 2.0 mi North 3.5 mph - N/A Rain Light Rain
12:17 PM 53.6 °F - 53.6 °F 100% 30.11 in 2.5 mi North 4.6 mph - N/A Rain Light Rain
12:26 PM 53.6 °F - 53.6 °F 100% 30.11 in 2.0 mi Calm Calm - N/A Rain Light Rain
12:36 PM 53.6 °F - 53.6 °F 100% 30.11 in 1.8 mi Calm Calm - N/A Rain Light Rain
12:38 PM 53.6 °F - 53.6 °F 100% 30.11 in 2.0 mi Calm Calm - N/A Rain Light Rain
12:41 PM 53.6 °F - 53.6 °F 100% 30.11 in 2.5 mi Calm Calm - N/A Rain Light Rain
12:44 PM 53.6 °F - 53.6 °F 100% 30.11 in 3.0 mi Calm Calm - N/A Rain Light Rain
12:48 PM 53.6 °F - 53.6 °F 100% 30.11 in 4.0 mi North 3.5 mph - N/A   Light Drizzle
12:54 PM 53.6 °F - 53.6 °F 100% 30.10 in 8.0 mi Calm Calm - N/A   Overcast
12:55 PM 54.0 °F - 53.8 °F 99% 30.10 in 9.0 mi NNE 3.5 mph - 0.02 in   Overcast
12:57 PM 53.6 °F - 53.6 °F 100% 30.11 in 9.0 mi North 3.5 mph - N/A   Overcast
1:00 PM 53.6 °F - 53.6 °F 100% 30.11 in 10.0 mi North 3.5 mph - N/A   Light Drizzle
1:10 PM 53.6 °F - 53.6 °F 100% 30.10 in 5.0 mi Calm Calm - N/A   Light Drizzle
1:32 PM 55.4 °F - 55.4 °F 100% 30.09 in 10.0 mi Calm Calm - N/A   Overcast
1:43 PM 55.4 °F - 55.4 °F 100% 30.09 in 10.0 mi Calm Calm - N/A   Overcast
1:55 PM 55.9 °F - 55.0 °F 97% 30.08 in 10.0 mi NW 3.5 mph - 0.00 in   Overcast
2:22 PM 57.2 °F - 55.4 °F 94% 30.07 in 10.0 mi Calm Calm - N/A   Overcast
2:55 PM 57.7 °F - 56.3 °F 95% 30.06 in 10.0 mi WNW 8.1 mph - N/A   Overcast
3:00 PM 57.2 °F - 57.2 °F 100% 30.07 in 10.0 mi WNW 10.4 mph - N/A   Overcast
3:16 PM 57.2 °F - 55.4 °F 94% 30.07 in 10.0 mi WNW 5.8 mph - N/A   Overcast
3:44 PM 57.2 °F - 53.6 °F 88% 30.07 in 10.0 mi WNW 9.2 mph - N/A   Overcast
3:55 PM 57.2 °F - 53.6 °F 88% 30.07 in 10.0 mi WNW 12.7 mph - N/A   Overcast
4:01 PM 57.2 °F - 53.6 °F 88% 30.07 in 10.0 mi WNW 11.5 mph - N/A   Overcast
4:11 PM 57.2 °F - 53.6 °F 88% 30.06 in 10.0 mi NW 9.2 mph - N/A   Overcast
4:16 PM 57.2 °F - 51.8 °F 82% 30.07 in 10.0 mi NW 8.1 mph - N/A   Overcast
4:39 PM 57.2 °F - 51.8 °F 82% 30.07 in 10.0 mi WNW 6.9 mph - N/A   Mostly Cloudy
4:55 PM 57.9 °F - 51.8 °F 80% 30.07 in 10.0 mi NW 5.8 mph - N/A   Mostly Cloudy
5:08 PM 59.0 °F - 51.8 °F 77% 30.06 in 10.0 mi WNW 5.8 mph - N/A   Scattered Clouds
5:09 PM 59.0 °F - 51.8 °F 77% 30.06 in 10.0 mi NW 5.8 mph - N/A   Mostly Cloudy
5:13 PM 59.0 °F - 51.8 °F 77% 30.07 in 10.0 mi NW 5.8 mph - N/A   Scattered Clouds
5:55 PM 56.3 °F - 51.4 °F 84% 30.08 in 10.0 mi WNW 5.8 mph - N/A   Clear
6:55 PM 53.4 °F - 51.1 °F 92% 30.09 in 10.0 mi West 3.5 mph - N/A   Clear
7:55 PM 50.4 °F - 50.2 °F 99% 30.09 in 5.0 mi Calm Calm - N/A   Clear
8:05 PM 51.8 °F - 51.8 °F 100% 30.09 in 6.0 mi Calm Calm - N/A   Light Drizzle
8:07 PM 51.8 °F - 51.8 °F 100% 30.09 in 8.0 mi Calm Calm - N/A   Light Drizzle
8:31 PM 50.0 °F - 50.0 °F 100% 30.10 in 8.0 mi Calm Calm - N/A   Light Drizzle
8:55 PM 50.4 °F - 50.2 °F 99% 30.11 in 6.0 mi Calm Calm - 0.00 in   Light Drizzle
9:48 PM 48.2 °F - 48.2 °F 100% 30.10 in 8.0 mi NW 3.5 mph - N/A   Light Drizzle
9:55 PM 48.9 °F - 48.7 °F 99% 30.11 in 9.0 mi Calm Calm - 0.00 in   Light Drizzle
10:00 PM 48.2 °F - 48.2 °F 100% 30.11 in 8.0 mi WSW 3.5 mph - N/A   Light Drizzle
10:38 PM 46.4 °F - 46.4 °F 100% 30.10 in 2.5 mi Calm Calm - N/A   Light Drizzle
10:40 PM 46.4 °F - 46.4 °F 100% 30.10 in 2.0 mi Calm Calm - N/A   Light Drizzle
10:43 PM 46.4 °F 45.2 °F 46.4 °F 100% 30.10 in 2.5 mi West 3.5 mph - N/A   Light Drizzle
10:44 PM 48.2 °F - 46.4 °F 93% 30.10 in 2.5 mi West 3.5 mph - N/A   Light Drizzle
10:45 PM 48.2 °F - 46.4 °F 93% 30.10 in 3.0 mi West 3.5 mph - N/A   Light Drizzle
10:55 PM 46.9 °F - 46.6 °F 99% 30.10 in 5.0 mi West 4.6 mph - 0.00 in   Light Drizzle
11:07 PM 46.4 °F 43.5 °F 46.4 °F 100% 30.10 in 7.0 mi West 5.8 mph - N/A   Light Drizzle
11:55 PM 51.1 °F - 48.0 °F 89% 30.10 in 10.0 mi NW 8.1 mph - 0.00 in   Light Drizzle